Location: Lecco
(45.8566°N, 9.3977°E)
Time: 08:15:24
(UTC+02:00)

Altair - Pass Details

Date: 19 August 2020
Orbit: 1501 x 1682 km, 47.2° (Epoch: 25 September)

Event Time Altitude Azimuth Distance (km) Brightness Sun altitude
Exits shadow 05:23:47 - 280° (W) 4,799 9.6 -10.9°
Rises 05:23:49 0° 280° (W) 4,790 9.6 -10.9°
Reaches altitude 10° 05:26:57 10° 281° (W) 3,780 9.1 -10.4°
Maximum altitude 05:36:32 87° 11° (N) 1,542 7.6 -8.9°
Drops below altitude 10° 05:45:48 10° 102° (ESE) 3,662 10.3 -7.5°
Sets 05:48:48 0° 103° (ESE) 4,635 10.9 -7.1°
